Location: Buckenweiler
(49.0667°N, 10.2500°E)
Time: 09:00:11
(UTC+00:00)

Cosmos 1758 - Pass Details

Date: 18 January 2026
Orbit: 479 x 500 km, 82.5° (Epoch: 18 February)

Event Time Altitude Azimuth Distance (km) Brightness Sun altitude
Rises 05:29:41 0° 208° (SSW) 2,576 6.6 -15.3°
Reaches altitude 10° 05:31:55 10° 218° (SW) 1,694 5.6 -15.0°
Maximum altitude 05:35:21 36° 286° (WNW) 808 3.6 -14.4°
Drops below altitude 10° 05:38:48 10° 354° (N) 1,696 5.6 -13.9°
Sets 05:41:03 0° 3° (N) 2,579 6.6 -13.5°
